sat.trackr.live / text

‹ back to catalog

STARLINK-34066

NORAD 63909 · 2025-095V

PAYLOAD ACTIVE UNKNOWN

§ Identity

Operator
Country
US
Launch date
2025-05-10
Launch site
AFETR
Launch vehicle
Mass (kg)
RCS (m²)

Purposes: comms

External: N2YO · Heavens-Above · Gunter

§ Orbital elements

Epoch: 2026-09-20T03:09:26.496288Z

Period
94.27 min
Inclination
43.0008°
Eccentricity
0.0001310
Mean motion
15.27585635 rev/d
Perigee alt
482.1 km
Apogee alt
483.9 km
Semi-major
6,861.2 km
B*
1.9507e-4
RAAN
158.2384°
Arg perigee
270.5822°
Mean anomaly
89.4880°
Rev number
7,751

§ Raw data

STARLINK-340661 63909U 25095V   26263.13155667  .00005110  00000+0  19507-3 0  99922 63909  43.0008 158.2384 0001310 270.5822  89.4880 15.27585635 77510

JSON: /api/v1/satellites/63909 · /tle

For live sub-satellite position, see the globe view (requires WebGL).

§ Visibility from observer

Set your observer location to see the next 7 days of passes ≥ 10°. The values pass through the URL so the page stays shareable.

No JS? Fill the form by hand. The geolocation button needs JavaScript.